星链-3621 (STARLINK-3621 )

导读 | 星芒AI

STARLINK-3621 是 SpaceX Starlink 项目中的一颗低轨通信卫星,属于第三代 Starlink 卫星(也称为 v1.5 或 Block V)。该卫星于 2023 年发射,旨在为全球提供高速、低延迟的互联网服务。它运行在约 550 公里的轨道高度,配备先进的激光通信系统和相控阵天线,以提升网络性能和连接稳定性。STARLINK-3621 与其他 Starlink 卫星协同工作,扩大覆盖范围,支持偏远地区的互联网接入,推动全球数字包容性发展。

基本信息
目录编号:
51769
目录名称:
STARLINK-3621
国际标识:
2022-017B
轨道中心:
EARTH
卫星名称:
星链-3621
卫星全名:
星链-3621 (STARLINK-3621 )
卫星状态:
在轨 (已飞行1395 天)
发射日期:
2022-02-25 UTC
国别 :
美国 (US)
星等 :
--
轨道信息
数据来源 国际轨道数据
星历时间: 2025-12-20T23:43:43+0800
8小时前
查看轨道信息
半长轴: 6917.978km
偏心率: 0.0001513
轨道倾角: 53.220°
近地点辐角 94.877°
升交点赤经 333.917°
平近点角 265.239°
近地点: 538.794km
远地点: 540.888km
周期: 95.440分钟
每日圈数: 15.088082
详细信息
固有亮度:
5
最大亮度:
2.5
卫星平台:
Starlink v1.5
覆盖范围:
全球
运营商:
太空探索技术公司
运营商所在国:
美国
制造商(研发单位):
太空探索技术公司
制造商所在国:
美国
使用方式:
暂无
卫星简介
星链(Starlink)计划是由太空探索技术公司(SpaceX)提出的一个巨型低轨卫星互联网星座项目,计划在2019年至2024年间在太空搭建由约1.2万颗卫星组成的“星链”网络,其中1584颗将部署在地球上空550千米处的近地轨道,并从2020年开始工作。该卫星仍在工作。
2D轨道图
3D轨道图
轨道高度分析图
轨道倾角分析图
轨道综合分析图
查看轨道综合分析图